sat.trackr.live / text

‹ back to catalog

UNKNOWN

NORAD 89251

UNKNOWN UNKNOWN UNKNOWN

§ Identity

Operator
Country
Launch date
Launch site
Launch vehicle
Mass (kg)
RCS (m²)

External: N2YO · Heavens-Above

§ Orbital elements

Epoch: 2026-05-23T10:18:31.677984Z

Period
155.08 min
Inclination
62.4720°
Eccentricity
0.2803181
Mean motion
9.28579117 rev/d
Perigee alt
503.0 km
Apogee alt
5,863.5 km
Semi-major
9,561.4 km
B*
2.2050e-3
RAAN
151.2957°
Arg perigee
115.8397°
Mean anomaly
275.7022°
Rev number
38,817

§ Raw data

UNKNOWN1 89251U          26143.42953331  .00003456  00000+0  22050-2 0  99992 89251  62.4720 151.2957 2803181 115.8397 275.7022  9.28579117388176

JSON: /api/v1/satellites/89251 · /tle

For live sub-satellite position, see the globe view (requires WebGL).

§ Visibility from observer

Set your observer location to see the next 7 days of passes ≥ 10°. The values pass through the URL so the page stays shareable.

No JS? Fill the form by hand. The geolocation button needs JavaScript.